Location: Rowland
(34.5359°N, 79.2929°W)
Time: 16:31:26
(UTC+00:00)

S-56A Canister/Altair - Pass Details

Date: 10 October 2022
Orbit: 638 x 2494 km, 38.9° (Epoch: 06 December)

Event Time Altitude Azimuth Distance (km) Brightness Sun altitude
Exits shadow 09:46:09 27° 281° (W) 2,479 9.5 -19.8°
Maximum altitude 09:51:07 60° 213° (SSW) 1,369 8.5 -18.8°
Drops below altitude 10° 09:57:20 10° 134° (SE) 2,631 10.8 -17.6°
Sets 09:59:31 0° 130° (SE) 3,404 11.6 -17.1°
